FW0435 Weather Reports


time (UTC)temp
C
wind
direction
speed
KPH
gust
KPH
rain 1hr
cm
rain 24hr
cm
rain mn
cm
humidity
%
barometer
mb
20260901114516 22 155 0.0 0.0 0.00 0.00 0.00 95 1018.3
20260901113016 22 155 0.0 0.0 0.00 0.00 0.00 95 1018.1
20260901111515 22 155 0.0 0.0 0.00 0.00 0.00 95 1018.0
20260901110015 22 165 0.0 0.0 0.00 0.00 0.00 95 1017.9
20260901104532 22 175 0.0 0.0 0.00 0.00 0.00 95 1017.7
20260901103013 22 175 0.0 0.0 0.00 0.00 0.00 95 1017.7
20260901101519 22 174 0.0 0.0 0.00 0.00 0.00 94 1017.7
20260901100014 22 175 0.0 0.0 0.00 0.00 0.00 95 1017.6
20260901094512 22 176 0.0 0.0 0.00 0.00 0.00 95 1017.7
20260901093012 22 176 0.0 0.0 0.00 0.00 0.00 95 1017.7
20260901091516 21 176 0.0 0.0 0.00 0.00 0.00 94 1017.8
20260901090015 22 176 0.0 0.0 0.00 0.00 0.00 94 1017.6
20260901084507 21 176 0.0 0.0 0.00 0.00 0.00 94 1017.9
20260901083007 21 176 0.0 0.0 0.00 0.00 0.00 94 1018.1
20260901081506 21 176 0.0 0.0 0.00 0.00 0.00 94 1018.2
20260901080006 22 176 0.0 0.0 0.00 0.00 0.00 94 1018.0
20260901074502 22 176 0.0 0.0 0.00 0.00 0.00 94 1018.0
20260901073001 22 176 0.0 0.0 0.00 0.00 0.00 94 1018.0
20260901071622 22 176 0.0 0.0 0.00 0.00 0.00 94 1018.0
20260901070100 22 176 0.0 0.0 0.00 0.00 0.00 94 1018.0
20260901064558 22 176 0.0 0.0 0.00 0.00 0.00 94 1018.2
20260901063056 22 176 0.0 0.0 0.00 0.00 0.00 94 1018.3
20260901061601 22 176 0.0 0.0 0.00 0.00 0.00 94 1018.5
20260901060054 22 176 0.0 0.0 0.00 0.00 0.00 94 1018.5
20260901054553 22 158 0.0 0.0 0.00 0.00 0.00 94 1018.5
20260901053051 23 161 0.0 1.6 0.00 0.00 0.00 94 1018.7
20260901051546 23 267 0.0 0.0 0.00 0.00 0.00 94 1018.6
20260901050043 23 271 0.0 1.6 0.00 0.00 0.00 94 1018.7
20260901044537 23 273 0.0 0.0 0.00 0.00 0.00 94 1018.8
20260901043034 23 273 0.0 1.6 0.00 0.00 0.00 94 1019.0
20260901041532 22 273 0.0 0.0 0.00 0.00 0.00 94 1019.1
20260901040027 22 273 0.0 0.0 0.00 0.00 0.00 93 1019.3
20260901034527 22 273 0.0 0.0 0.00 0.00 0.00 93 1019.3
20260901033029 22 273 0.0 0.0 0.00 0.00 0.00 94 1019.2
20260901031539 22 273 0.0 0.0 0.00 0.00 0.00 93 1019.3
20260901030026 22 273 0.0 0.0 0.00 0.00 0.00 93 1019.5
20260901024529 22 273 0.0 0.0 0.00 0.00 0.00 93 1019.6
20260901023028 22 273 0.0 0.0 0.00 0.00 0.00 93 1019.5
20260901021524 22 273 0.0 0.0 0.00 0.00 0.00 92 1019.6
20260901020030 22 273 0.0 0.0 0.00 0.00 0.00 92 1019.6
20260901014523 22 273 0.0 0.0 0.00 0.00 0.00 92 1019.4
20260901013030 22 273 0.0 0.0 0.00 0.00 0.00 91 1019.3
20260901011522 23 273 0.0 0.0 0.00 0.00 0.00 91 1019.3
20260901010029 23 273 0.0 0.0 0.00 0.00 0.00 90 1019.2
20260901004523 23 273 0.0 0.0 0.00 0.00 0.00 89 1018.9
20260901003021 24 273 0.0 0.0 0.00 0.00 0.00 88 1018.9
20260901001533 25 273 0.0 0.0 0.00 0.00 0.00 86 1018.6
20260901000024 25 273 0.0 0.0 0.00 0.00 0.00 86 1018.7
20260831234520 26 273 0.0 1.6 0.00 0.00 0.00 85 1018.6
20260831233019 26 273 0.0 1.6 0.00 0.00 0.00 83 1018.7
20260831231517 27 153 0.0 0.0 0.00 0.00 0.00 82 1018.7
20260831230018 27 152 0.0 0.0 0.00 0.00 0.00 81 1018.8
20260831224515 28 152 0.0 0.0 0.00 0.00 0.00 80 1018.9
20260831223014 28 175 0.0 0.0 0.00 0.00 0.00 79 1019.1
20260831221514 28 184 0.0 0.0 0.00 0.00 0.00 78 1019.1
20260831220013 28 186 0.0 0.0 0.00 0.00 0.00 78 1019.1
20260831214512 28 143 0.0 0.0 0.00 0.00 0.00 76 1019.2
20260831213013 28 264 0.0 0.0 0.00 0.00 0.00 78 1019.3
20260831211511 28 126 0.0 0.0 0.00 0.00 0.00 81 1019.3
20260831210010 28 126 0.0 0.0 0.00 0.00 0.00 78 1019.3
20260831204510 28 112 0.0 0.0 0.00 0.00 0.00 79 1019.4
20260831203009 28 112 0.0 0.0 0.00 0.00 0.00 80 1019.5
20260831201512 28 112 0.0 0.0 0.00 0.00 0.00 80 1019.5
20260831200009 28 112 0.0 0.0 0.00 0.00 0.00 79 1019.8
20260831194508 28 112 0.0 0.0 0.00 0.00 0.00 77 1019.6
20260831193010 29 112 0.0 0.0 0.00 0.00 0.00 76 1019.8
20260831191514 28 112 0.0 0.0 0.00 0.00 0.00 77 1019.9
20260831190007 28 121 0.0 0.0 0.00 0.00 0.00 77 1019.9
20260831184506 28 100 0.0 0.0 0.00 0.00 0.00 77 1020.3
20260831183007 28 100 0.0 0.0 0.00 0.00 0.00 78 1020.4
20260831181505 28 100 0.0 0.0 0.00 0.00 0.00 77 1020.3
20260831180006 28 100 0.0 0.0 0.00 0.00 0.00 77 1020.4
20260831174504 28 144 0.0 0.0 0.00 0.00 0.00 74 1020.5
20260831173004 28 144 0.0 1.6 0.00 0.00 0.00 74 1020.5
20260831171507 28 148 0.0 3.2 0.00 0.00 0.00 74 1020.5
20260831170001 28 102 0.0 4.8 0.00 0.00 0.00 76 1020.6
20260831164501 28 126 0.0 4.8 0.00 0.00 0.00 76 1020.8
20260831163104 28 113 0.0 3.2 0.00 0.00 0.00 75 1020.7
20260831161558 28 252 0.0 1.6 0.00 0.00 0.00 77 1020.9
20260831160100 28 222 0.0 4.8 0.00 0.00 0.00 78 1021.0
20260831154551 27 96 0.0 6.4 0.00 0.00 0.00 81 1021.0
20260831153051 26 330 0.0 4.8 0.00 0.00 0.00 81 1021.1
20260831151549 27 303 0.0 3.2 0.00 0.00 0.00 79 1021.1
20260831150053 27 345 1.6 6.4 0.00 0.00 0.00 80 1021.3
20260831144549 26 138 0.0 4.8 0.00 0.00 0.00 81 1021.0
20260831143044 26 272 0.0 4.8 0.00 0.00 0.00 81 1020.8
20260831141544 27 124 1.6 8.0 0.00 0.00 0.00 80 1020.9
20260831140039 25 314 1.6 3.2 0.00 0.00 0.00 83 1021.1
20260831134535 24 339 0.0 0.0 0.00 0.00 0.00 86 1020.9
20260831133035 23 3 0.0 3.2 0.00 0.00 0.00 89 1020.9
20260831131529 23 198 0.0 0.0 0.00 0.00 0.00 93 1020.9
20260831130027 23 198 0.0 0.0 0.00 0.00 0.00 95 1020.8
20260831124544 22 198 0.0 0.0 0.00 0.00 0.00 95 1020.9
20260831123022 22 198 0.0 0.0 0.00 0.00 0.00 95 1020.9
20260831121522 22 198 0.0 0.0 0.00 0.00 0.00 95 1020.8
20260831120019 21 198 0.0 0.0 0.00 0.00 0.00 95 1020.7